Hourly Weather Roundup
Issued by NWS Central Illinois

Home | Current Version | Previous Version | Text Only | Print | Product List | Glossary On
Versions: 1 2 3 4 5 6 7 8 9 10 11 12 13 14 15 16 17 18 19 20 21 22 23 24 25 26 27 28 29 30 31 32 33 34 35 36 37 38 39 40 41 42 43 44 45 46 47 48 49 50
000
NZUS43 KILX 200910
HWRILX

AREA WEATHER ROUNDUP
NATIONAL WEATHER SERVICE, LINCOLN IL
400 AM CDT WED AUG 20 2014


CITY           SKY/WX    TMP DP  RH WIND       PRES   REMARKS
BLOOMINGTON    CLEAR     67  64  90 CALM      29.86S
CHAMPAIGN      FOG       64  63  96 CALM      29.86R VSB 1/4
DECATUR        CLEAR     73  70  90 NW6       29.85R
FLORA          CLEAR     68  68  99 CALM      29.87R FOG
GALESBURG      CLEAR     60  60  99 CALM      29.84F
JACKSONVILLE   FOG       69  68  98 CALM      29.85S VSB 3/4
LACON          CLEAR     64  62  94 CALM      29.83S FOG
LAWRENCEVILLE  CLEAR     70  69  97 S3        29.86S FOG
LITCHFIELD     CLEAR     66  66  99 S3        29.86R FOG
$$


CITY           SKY/WX    TMP DP  RH WIND       PRES   REMARKS
LINCOLN        FOG       64  63  96 CALM      29.82S VSB 1/4
MACOMB         PTCLDY    62  62 100 CALM      29.86S
MATTOON        CLEAR     71  69  93 SW5       29.85R
MT CARMEL AP   CLEAR     70  70 100 CALM      29.85F FOG
OLNEY-NOBLE AP   N/A     66  66 100 CALM      29.87R FOG
PARIS          CLEAR     65  65 100 CALM      29.86S FOG
PEORIA         CLEAR     67  63  87 CALM      29.84S
PONTIAC        CLEAR     64  64 100 CALM      29.84R FOG
RANTOUL        CLEAR     67  64  90 W5        29.86S
ROBINSON       FOG       71  71  98 CALM      29.86S VSB 1/4
SPRINGFIELD    CLEAR     68  67  96 S3        29.84R FOG
TAYLORVILLE    CLEAR     64  64 100 CALM      29.85R
$$

...REGIONAL REPORTS...


CITY           SKY/WX    TMP DP  RH WIND       PRES   REMARKS
CHICAGO O`HARE CLEAR     68  60  75 W5        29.81R
KANKAKEE       CLEAR     65  64  98 W3        29.84R
MOLINE         CLEAR     64  62  93 CALM      29.82F
MOUNT VERNON   CLEAR     66  63  88 CALM      29.87S
PITTSFIELD     CLEAR     70  68  93 CALM      29.87R
QUINCY         PTCLDY    71  69  93 CALM      29.85R
ROCKFORD       PTCLDY    64  60  87 CALM      29.84R
$$


CITY           SKY/WX    TMP DP  RH WIND       PRES   REMARKS
BURLINGTON     CLEAR     66  64  93 CALM      29.84S
CEDAR RAPIDS   CLEAR     61  61 100 S3        29.81F
DES MOINES     MOCLDY    74  65  73 SE6       29.80F
KIRKSVILLE     PTCLDY    71  68  90 SE6       29.84F
OTTUMWA        MOCLDY    67  65  93 SE3       29.82F
ST LOUIS       CLEAR     75  71  87 CALM      29.86R
$$


CITY           SKY/WX    TMP DP  RH WIND       PRES   REMARKS
TERRE HAUTE    CLOUDY    65  63  93 CALM      29.85S FOG
EVANSVILLE     CLEAR     72  69  90 CALM      29.87R
INDIANAPOLIS   CLEAR     65  63  93 SW7       29.85R
LAFAYETTE      FOG       62  62 100 CALM      29.84R VSB 3/4
MADISON        PTCLDY    63  60  90 CALM      29.82R
MILWAUKEE      CLEAR     67  62  84 W5        29.79R
$$




USA.gov is the U.S. government's official web portal to all federal, state and local government web resources and services.